User: anonymous   Login
Location: Unspecified
(0.0000°N, 0.0000°E)
Time: 11:03:56
(UTC+00:00)
Language:

USA 184 - Orbit

View from above orbital plane
View from above orbital plane
View from above satellite
View from above satellite

Ground track
Ground track

The orbit data is extracted from the following two-line orbital elements,

1 29249U 06027A   17316.62019337 0.00000000  00000-0  00000-0 0    03
2 29249  62.8580 260.7758 6954431 270.5268  17.1924  2.00610000    07
Epoch (UTC): 12 November 2017 14:53:04
Eccentricity: 0.6954431
inclination: 62.8580°
perigee height: 1710 km
apogee height: 38646 km
right ascension of ascending node: 260.7758°
argument of perigee: 270.5268°
revolutions per day: 2.00610000
mean anomaly at epoch: 17.1924°
orbit number at epoch: 0

The dashed part of the orbit path shows where the satellite is in the earth's shadow,  

DLR